User: anonymous   Login
Location: Unspecified
(0.0000°N, 0.0000°E)
Time: 12:58:19
(UTC+00:00)
Language:

UNAMSat - Orbit

View from above orbital plane
View from above orbital plane
View from above satellite
View from above satellite

Ground track
Ground track

The orbit data is extracted from the following two-line orbital elements,

1 24305U 96052B   21015.51143726  .00000045  00000-0  31415-4 0  9991
2 24305  82.9371 104.5376 0029987   3.6258 356.5108 13.73829190221108
Epoch (UTC): 15 January 2021 12:16:28
Eccentricity: 0.0029987
inclination: 82.9371°
perigee height: 964 km
apogee height: 1008 km
right ascension of ascending node: 104.5376°
argument of perigee: 3.6258°
revolutions per day: 13.73829190
mean anomaly at epoch: 356.5108°
orbit number at epoch: 22110

The dashed part of the orbit path shows where the satellite is in the earth's shadow,  

DLR